Location: Groß Eilstorf
(52.8200°N, 9.4552°E)
Time: 20:30:02
(UTC+00:00)

Cosmos 2237 Rocket - Pass Details

Date: 15 May 2026
Orbit: 833 x 849 km, 71.0° (Epoch: 6 June)

Event Time Altitude Azimuth Distance (km) Brightness Sun altitude
Rises 22:35:30 0° 328° (NNW) 3,422 6.7 -17.5°
Reaches altitude 10° 22:37:58 10° 330° (NNW) 2,481 5.7 -17.6°
Maximum altitude 22:43:41 77° 57° (ENE) 871 2.3 -17.7°
Enters shadow 22:47:04 25° 141° (SE) 1,632 3.2 -17.8°
